Location: Newark
(40.3667°N, 3.7500°W)
Time: 18:08:09
(UTC+00:00)

Envisat - Visible Passes

Search period start: 22 September 2019 00:00
Search period end: 02 October 2019 00:00
Orbit: 764 x 766 km, 98.1° (Epoch: 22 September)

Date Brightness Start Highest point End Pass type
(mag) Time Alt. Az. Time Alt. Az. Time Alt. Az.
22 Sep 6.0 19:51:26 10° WSW 19:54:00 14° W 19:56:36 10° WNW visible
23 Sep 5.0 19:12:27 10° SSW 19:16:55 31° W 19:21:26 10° NNW visible
24 Sep 3.4 18:34:58 10° S 18:40:02 71° WSW 18:45:07 10° NNW visible
25 Sep 5.9 19:39:14 10° SW 19:42:38 18° W 19:46:03 10° NW visible
26 Sep 4.5 19:00:52 10° SSW 19:05:36 40° W 19:10:23 10° NNW visible
27 Sep 3.1 18:23:41 10° SSE 18:28:46 90° WSW 18:33:53 10° NNW visible
28 Sep 5.5 19:27:20 10° SW 19:31:16 23° W 19:35:15 10° NW visible
29 Sep 4.0 18:49:23 10° S 18:54:19 51° W 18:59:16 10° NNW visible
30 Sep 6.1 19:54:55 10° WSW 19:57:03 13° W 19:59:11 10° WNW visible
01 Oct 5.1 19:15:35 10° SSW 19:19:56 29° W 19:24:19 10° NW visible
